Time,TemperatureF,DewpointF,PressureIn,WindDirection,WindDirectionDegrees,WindSpeedMPH,WindSpeedGustMPH,Humidity,HourlyPrecipIn,Conditions,Clouds,dailyrainin,SoftwareType,DateUTC
2013-08-27 00:18:00,68.0,63.0,30.13,South,175,0.0,0.0,84,0.00,,,0.00,,2013-08-27 04:18:00,
2013-08-27 00:47:00,68.0,63.0,30.14,South,175,0.0,0.0,85,0.00,,,0.00,,2013-08-27 04:47:00,
2013-08-27 00:54:00,68.0,64.0,30.13,South,175,0.0,0.0,86,0.00,,,0.00,,2013-08-27 04:54:00,
2013-08-27 01:23:00,68.0,64.0,30.13,South,175,0.0,0.0,86,0.00,,,0.00,,2013-08-27 05:23:00,
2013-08-27 01:52:00,68.0,64.0,30.13,South,175,0.0,0.0,88,0.00,,,0.00,,2013-08-27 05:52:00,
2013-08-27 02:12:00,67.0,63.0,30.12,South,175,0.0,0.0,88,0.00,,,0.00,,2013-08-27 06:12:00,
2013-08-27 02:22:00,67.0,63.0,30.13,South,175,0.0,0.0,88,0.00,,,0.00,,2013-08-27 06:22:00,
2013-08-27 02:42:00,67.0,63.0,30.12,South,175,0.0,0.0,88,0.00,,,0.00,,2013-08-27 06:42:00,
2013-08-27 02:52:00,66.0,62.0,30.12,South,175,0.0,0.0,88,0.00,,,0.00,,2013-08-27 06:52:00,
2013-08-27 03:12:00,66.0,62.0,30.11,South,175,0.0,0.0,88,0.00,,,0.00,,2013-08-27 07:12:00,
2013-08-27 03:22:00,66.0,63.0,30.11,South,175,0.0,0.0,89,0.00,,,0.00,,2013-08-27 07:22:00,
2013-08-27 03:52:00,66.0,63.0,30.11,South,175,0.0,0.0,89,0.00,,,0.00,,2013-08-27 07:52:00,
2013-08-27 04:12:00,65.0,62.0,30.11,South,175,0.0,0.0,89,0.00,,,0.00,,2013-08-27 08:12:00,
2013-08-27 04:22:00,65.0,62.0,30.10,South,175,0.0,0.0,89,0.00,,,0.00,,2013-08-27 08:22:00,
2013-08-27 04:42:00,65.0,62.0,30.10,South,175,0.0,0.0,89,0.00,,,0.00,,2013-08-27 08:42:00,
2013-08-27 04:52:00,65.0,62.0,30.10,South,175,0.0,0.0,90,0.00,,,0.00,,2013-08-27 08:52:00,
2013-08-27 05:11:00,65.0,62.0,30.09,South,175,0.0,0.0,90,0.00,,,0.00,,2013-08-27 09:11:00,
2013-08-27 05:21:00,65.0,62.0,30.09,South,175,0.0,0.0,90,0.00,,,0.00,,2013-08-27 09:21:00,
2013-08-27 05:54:00,64.0,61.0,30.09,South,175,0.0,0.0,90,0.00,,,0.00,,2013-08-27 09:54:00,
2013-08-27 06:14:00,64.0,61.0,30.09,South,175,0.0,0.0,91,0.00,,,0.00,,2013-08-27 10:14:00,
2013-08-27 06:25:00,64.0,61.0,30.09,South,175,0.0,0.0,91,0.00,,,0.00,,2013-08-27 10:25:00,
2013-08-27 06:43:00,64.0,61.0,30.09,South,175,0.0,0.0,91,0.00,,,0.00,,2013-08-27 10:43:00,
2013-08-27 06:53:00,63.0,60.0,30.10,South,175,0.0,0.0,91,0.00,,,0.00,,2013-08-27 10:53:00,
2013-08-27 07:12:00,63.0,60.0,30.09,South,175,0.0,0.0,91,0.00,,,0.00,,2013-08-27 11:12:00,
2013-08-27 07:22:00,63.0,60.0,30.10,South,175,0.0,0.0,91,0.00,,,0.00,,2013-08-27 11:22:00,
2013-08-27 07:42:00,63.0,60.0,30.09,South,175,0.0,0.0,91,0.00,,,0.00,,2013-08-27 11:42:00,
2013-08-27 07:52:00,63.0,60.0,30.10,South,175,0.0,0.0,91,0.00,,,0.00,,2013-08-27 11:52:00,
2013-08-27 08:12:00,64.0,62.0,30.10,South,175,0.0,0.0,92,0.00,,,0.00,,2013-08-27 12:12:00,
2013-08-27 08:22:00,65.0,63.0,30.11,South,175,0.0,0.0,92,0.00,,,0.00,,2013-08-27 12:22:00,
2013-08-27 08:42:00,66.0,64.0,30.11,South,175,0.0,0.0,92,0.00,,,0.00,,2013-08-27 12:42:00,
2013-08-27 08:52:00,66.0,64.0,30.10,South,175,0.0,0.0,92,0.00,,,0.00,,2013-08-27 12:52:00,
2013-08-27 09:11:00,67.0,64.0,30.10,South,175,0.0,0.0,91,0.00,,,0.00,,2013-08-27 13:11:00,
2013-08-27 09:22:00,69.0,66.0,30.09,South,175,0.0,0.0,90,0.00,,,0.00,,2013-08-27 13:22:00,
2013-08-27 09:42:00,69.0,66.0,30.09,WSW,250,0.0,0.0,89,0.00,,,0.00,,2013-08-27 13:42:00,
2013-08-27 09:52:00,70.0,67.0,30.09,WSW,250,0.0,0.0,89,0.00,,,0.00,,2013-08-27 13:52:00,
2013-08-27 10:11:00,72.0,68.0,30.09,WSW,250,0.0,0.0,88,0.00,,,0.00,,2013-08-27 14:11:00,
2013-08-27 10:22:00,73.0,69.0,30.09,West,268,0.0,0.0,88,0.00,,,0.00,,2013-08-27 14:22:00,
2013-08-27 10:42:00,75.0,70.0,30.08,West,268,0.0,0.0,85,0.00,,,0.00,,2013-08-27 14:42:00,
2013-08-27 10:53:00,75.0,69.0,30.08,West,267,0.0,0.0,83,0.00,,,0.00,,2013-08-27 14:53:00,
2013-08-27 11:11:00,76.0,70.0,30.08,West,267,0.0,0.0,82,0.00,,,0.00,,2013-08-27 15:11:00,
2013-08-27 11:22:00,77.0,71.0,30.08,West,271,0.0,0.0,81,0.00,,,0.00,,2013-08-27 15:22:00,
2013-08-27 11:45:00,77.0,70.0,30.08,West,271,0.0,0.0,78,0.00,,,0.00,,2013-08-27 15:45:00,
2013-08-27 11:58:00,78.0,70.0,30.08,NE,37,0.0,0.0,76,0.00,,,0.00,,2013-08-27 15:58:00,
2013-08-27 12:17:00,78.0,69.0,30.08,NE,37,0.0,0.0,75,0.00,,,0.00,,2013-08-27 16:17:00,
2013-08-27 12:28:00,79.0,70.0,30.08,SE,138,0.0,0.0,74,0.00,,,0.00,,2013-08-27 16:28:00,
2013-08-27 12:46:00,79.0,68.0,30.08,SE,138,0.0,0.0,70,0.00,,,0.00,,2013-08-27 16:46:00,
2013-08-27 12:55:00,80.0,69.0,30.07,SE,138,0.0,0.0,69,0.00,,,0.00,,2013-08-27 16:55:00,
2013-08-27 13:13:00,80.0,68.0,30.06,SE,138,0.0,0.0,68,0.00,,,0.00,,2013-08-27 17:13:00,
2013-08-27 13:23:00,80.0,68.0,30.06,SE,138,0.0,0.0,67,0.00,,,0.00,,2013-08-27 17:23:00,
2013-08-27 13:52:00,80.0,67.0,30.05,SE,138,0.0,0.0,65,0.00,,,0.00,,2013-08-27 17:52:00,
2013-08-27 14:12:00,81.0,67.0,30.05,SE,138,0.0,0.0,63,0.00,,,0.00,,2013-08-27 18:12:00,
2013-08-27 14:22:00,81.0,67.0,30.05,SE,141,0.0,0.0,62,0.00,,,0.00,,2013-08-27 18:22:00,
2013-08-27 14:42:00,82.0,67.0,30.04,SE,141,0.0,0.0,61,0.00,,,0.00,,2013-08-27 18:42:00,
2013-08-27 14:53:00,82.0,67.0,30.04,SE,141,0.0,0.0,60,0.00,,,0.00,,2013-08-27 18:53:00,
2013-08-27 15:12:00,83.0,67.0,30.03,SSE,155,0.0,0.0,58,0.00,,,0.00,,2013-08-27 19:12:00,
2013-08-27 15:22:00,82.0,65.0,30.03,SSE,155,0.0,0.0,57,0.00,,,0.00,,2013-08-27 19:22:00,
2013-08-27 15:52:00,83.0,65.0,30.01,SSE,155,0.0,0.0,55,0.00,,,0.00,,2013-08-27 19:52:00,
2013-08-27 16:12:00,84.0,66.0,30.01,SSE,155,0.0,0.0,55,0.00,,,0.00,,2013-08-27 20:12:00,